Location: Newark
(0.5300°S, 127.4800°E)
Time: 21:08:51
(UTC+00:00)

Vanguard 3 - Pass Details

Date: 19 September 2019
Orbit: 508 x 3262 km, 33.3° (Epoch: 20 October)

Event Time Altitude Azimuth Distance (km) Brightness Sun altitude
Rises 01:51:44 0° 303° (WNW) 6,709 11.6 66.8°
Reaches altitude 10° 01:59:06 10° 321° (NW) 6,026 11.6 68.6°
Maximum altitude 02:10:02 17° 356° (N) 5,595 11.7 71.4°
Drops below altitude 10° 02:20:52 10° 31° (NNE) 5,959 11.8 74.0°
Sets 02:28:07 0° 50° (NE) 6,605 12.0 75.8°
